Niagara Falls, NY

12:38 AM EST on December 11, 2019 (GMT -0500)
Niagara Falls International

Weather History for KIAG - October, 2019

Change the Weather History Date:

Saturday, October 12, 2019

  Actual Average Record
Temperature  
Mean Temperature 50 °F -  
Max Temperature 60 °F 59 °F 75 °F (2008)
Min Temperature 39 °F 41 °F 30 °F (2012)
Degree Days  
Heating Degree Days 16    
Moisture  
Dew Point 44 °F    
Average Humidity 73    
Maximum Humidity 93    
Minimum Humidity 51    
Precipitation  
Precipitation 0.04 in - - ()
Sea Level Pressure  
Sea Level Pressure 29.95 in    
Wind  
Wind Speed 11 mph (SW)    
Max Wind Speed 24 mph    
Max Gust Speed 30 mph    
Visibility 10 miles    
Events Rain    
Averages and records for this station are not official NWS values.
T = Trace of Precipitation, MM = Missing Value Source: NWS Daily Summary

Daily Weather History Graph

Daily Weather History Graph

Search for Another Location

Airport or City:

Astronomy

Oct. 12, 2019 Rise Set
Actual Time 7:25 AM EDT 6:38 PM EDT
Civil Twilight 6:57 AM EDT 7:06 PM EDT
Nautical Twilight 6:24 AM EDT 7:39 PM EDT
Astronomical Twilight 5:51 AM EDT 8:12 PM EDT
Moon 6:36 PM EDT (10/12) 5:57 AM EDT (10/12)
Length of Visible Light 12h 09m
Length of Day
11h 12m
Waxing Gibbous, 99% of the Moon is Illuminated
Oct 12
Waxing Gibbous
Oct 13
Full
Oct 21
Last Quarter
Oct 27
New
Nov 4
First Quarter

Hourly Weather History & Observations

Time (EDT) Temp. Windchill Dew Point Humidity Pressure Visibility Wind Dir Wind Speed Gust Speed Precip Events Conditions
12:53 AM 53.1 °F - 44.1 °F 71% 29.95 in 10.0 mi East 4.6 mph - N/A   Clear
1:53 AM 52.0 °F - 45.0 °F 77% 29.91 in 10.0 mi East 6.9 mph - N/A   Partly Cloudy
2:53 AM 55.0 °F - 44.1 °F 67% 29.89 in 10.0 mi ESE 8.1 mph - N/A   Overcast
3:53 AM 55.0 °F - 45.0 °F 69% 29.88 in 10.0 mi SE 3.5 mph - N/A   Overcast
4:53 AM 55.9 °F - 48.0 °F 75% 29.87 in 10.0 mi South 3.5 mph - 0.00 in Rain Light Rain
5:53 AM 57.9 °F - 50.0 °F 75% 29.85 in 10.0 mi SSE 8.1 mph - 0.00 in   Overcast
6:53 AM 60.1 °F - 48.0 °F 64% 29.86 in 10.0 mi South 12.7 mph - N/A   Overcast
7:24 AM 59.0 °F - 51.1 °F 75% 29.86 in 10.0 mi SSW 13.8 mph - 0.01 in Rain Light Rain
7:53 AM 59.0 °F - 55.0 °F 87% 29.87 in 10.0 mi SW 15.0 mph - 0.01 in   Overcast
8:53 AM 57.0 °F - 54.0 °F 89% 29.89 in 8.0 mi SSW 15.0 mph - 0.03 in Rain Light Rain
9:11 AM 55.9 °F - 54.0 °F 93% 29.89 in 10.0 mi West 24.2 mph 27.6 mph 0.00 in   Overcast
9:23 AM 54.0 °F - 51.1 °F 90% 29.91 in 10.0 mi West 20.7 mph - 0.00 in   Overcast
9:53 AM 53.1 °F - 48.9 °F 86% 29.94 in 10.0 mi West 18.4 mph - 0.00 in   Overcast
10:53 AM 52.0 °F - 48.0 °F 86% 29.96 in 10.0 mi West 18.4 mph 24.2 mph N/A   Overcast
11:53 AM 52.0 °F - 46.0 °F 80% 29.98 in 10.0 mi West 17.3 mph - N/A   Overcast
12:53 PM 55.0 °F - 43.0 °F 64% 29.99 in 10.0 mi WSW 20.7 mph 27.6 mph N/A   Overcast
1:00 PM 55.0 °F - 42.1 °F 62% 29.98 in 10.0 mi West 18.4 mph - N/A   Mostly Cloudy
1:37 PM 55.9 °F - 41.0 °F 57% 29.97 in 10.0 mi WSW 19.6 mph 28.8 mph N/A   Mostly Cloudy
1:53 PM 55.0 °F - 37.9 °F 53% 29.99 in 10.0 mi West 23.0 mph 26.5 mph N/A   Mostly Cloudy
2:53 PM 55.0 °F - 37.0 °F 51% 29.98 in 10.0 mi WSW 18.4 mph 28.8 mph N/A   Scattered Clouds
3:53 PM 54.0 °F - 37.9 °F 55% 29.99 in 10.0 mi WSW 17.3 mph 23.0 mph N/A   Mostly Cloudy
4:53 PM 52.0 °F - 37.9 °F 59% 30.01 in 10.0 mi WSW 20.7 mph 29.9 mph N/A   Overcast
5:53 PM 51.1 °F - 37.9 °F 61% 30.01 in 10.0 mi WSW 19.6 mph - N/A   Overcast
6:53 PM 50.0 °F - 37.9 °F 63% 30.02 in 10.0 mi WSW 17.3 mph 23.0 mph N/A   Overcast
7:53 PM 46.9 °F - 37.0 °F 68% 30.04 in 10.0 mi WSW 13.8 mph - N/A   Scattered Clouds
8:53 PM 43.0 °F 39.5 °F 36.0 °F 76% 30.04 in 10.0 mi West 5.8 mph - N/A   Partly Cloudy
9:53 PM 43.0 °F - 36.0 °F 76% 30.06 in 10.0 mi Calm Calm - N/A   Clear
10:53 PM 39.9 °F 37.8 °F 36.0 °F 86% 30.05 in 10.0 mi ESE 3.5 mph - N/A   Clear
11:53 PM 39.0 °F 34.8 °F 36.0 °F 89% 30.04 in 10.0 mi East 5.8 mph - N/A   Scattered Clouds